Hourly Weather Ruvuma

Today, 21 April, Wednesday

Time Temperature Precipitation Wind Pressure Humidity
00:00 +20°C° 0.7 mm 1 mps 689 mmHg 97%
01:00 +20°C° 0.7 mm 1 mps 689 mmHg 98%
02:00 +20°C° 0 mm 1 mps 689 mmHg 98%
03:00 +20°C° 0.5 mm 1 mps 689 mmHg 98%
04:00 +20°C° 0.5 mm 1 mps 689 mmHg 98%
05:00 +20°C° 0.5 mm 1 mps 689 mmHg 98%
06:00 +20°C° 0 mm 2 mps 689 mmHg 96%
07:00 +20°C° 0 mm 2 mps 690 mmHg 93%
08:00 +21°C° 0 mm 2 mps 690 mmHg 91%
09:00 +23°C° 0.1 mm 2 mps 690 mmHg 85%
10:00 +24°C° 0.1 mm 3 mps 690 mmHg 80%
11:00 +24°C° 0.1 mm 3 mps 690 mmHg 75%
12:00 +25°C° 0.1 mm 3 mps 690 mmHg 74%
13:00 +25°C° 0.1 mm 3 mps 689 mmHg 72%
14:00 +25°C° 0.1 mm 3 mps 688 mmHg 71%
15:00 +24°C° 0 mm 3 mps 688 mmHg 75%
16:00 +24°C° 0 mm 2 mps 688 mmHg 80%
17:00 +23°C° 0 mm 2 mps 688 mmHg 84%
18:00 +22°C° 0 mm 1 mps 689 mmHg 87%
19:00 +21°C° 0 mm 1 mps 689 mmHg 91%
20:00 +20°C° 0 mm 1 mps 689 mmHg 94%
21:00 +19°C° 0 mm 1 mps 689 mmHg 94%
22:00 +19°C° 0 mm 1 mps 689 mmHg 95%
23:00 +17°C° 0 mm 0 mps 689 mmHg 95%

Tomorrow, 22 April, Thursday

Time Temperature Precipitation Wind Pressure Humidity
00:00 +19°C° 0 mm 1 mps 689 mmHg 95%
01:00 +19°C° 0 mm 1 mps 689 mmHg 95%
02:00 +19°C° 0 mm 1 mps 688 mmHg 96%
03:00 +19°C° 0 mm 1 mps 689 mmHg 95%
04:00 +19°C° 0 mm 1 mps 689 mmHg 94%
05:00 +20°C° 0 mm 1 mps 689 mmHg 94%
06:00 +20°C° 0 mm 2 mps 689 mmHg 89%
07:00 +21°C° 0 mm 2 mps 690 mmHg 85%
08:00 +22°C° 0 mm 3 mps 690 mmHg 80%
09:00 +24°C° 0.1 mm 3 mps 690 mmHg 76%
10:00 +25°C° 0.1 mm 3 mps 690 mmHg 71%
11:00 +26°C° 0.1 mm 3 mps 690 mmHg 66%
12:00 +26°C° 0.1 mm 3 mps 690 mmHg 66%
13:00 +27°C° 0.1 mm 3 mps 689 mmHg 65%
14:00 +27°C° 0.1 mm 3 mps 688 mmHg 64%
15:00 +26°C° 0.1 mm 3 mps 688 mmHg 70%
16:00 +25°C° 0.1 mm 2 mps 688 mmHg 77%
17:00 +24°C° 0.1 mm 2 mps 688 mmHg 83%
18:00 +21°C° 0 mm 2 mps 688 mmHg 87%
19:00 +21°C° 0 mm 1 mps 689 mmHg 91%
20:00 +20°C° 0 mm 1 mps 689 mmHg 95%
21:00 +20°C° 0 mm 1 mps 689 mmHg 95%
22:00 +20°C° 0 mm 1 mps 689 mmHg 96%
23:00 +19°C° 0 mm 1 mps 689 mmHg 97%

Day after tomorrow, 23 April, Friday

Time Temperature Precipitation Wind Pressure Humidity
00:00 +19°C° 0.1 mm 1 mps 689 mmHg 97%
01:00 +19°C° 0.1 mm 1 mps 688 mmHg 97%
02:00 +19°C° 0.1 mm 1 mps 688 mmHg 98%
03:00 +19°C° 0 mm 1 mps 688 mmHg 98%
04:00 +19°C° 0 mm 1 mps 688 mmHg 98%
05:00 +19°C° 0 mm 1 mps 688 mmHg 98%
06:00 +19°C° 0 mm 2 mps 688 mmHg 96%
07:00 +20°C° 0 mm 2 mps 689 mmHg 93%
08:00 +21°C° 0 mm 3 mps 689 mmHg 90%
09:00 +22°C° 0.2 mm 3 mps 689 mmHg 85%
10:00 +24°C° 0.2 mm 3 mps 689 mmHg 80%
11:00 +25°C° 0.2 mm 3 mps 689 mmHg 75%
12:00 +25°C° 0.4 mm 3 mps 688 mmHg 76%
13:00 +25°C° 0.4 mm 3 mps 688 mmHg 76%
14:00 +25°C° 0.4 mm 3 mps 687 mmHg 77%
15:00 +25°C° 0.1 mm 3 mps 687 mmHg 80%
16:00 +24°C° 0.1 mm 2 mps 687 mmHg 83%
17:00 +23°C° 0.1 mm 2 mps 687 mmHg 86%
18:00 +21°C° 0 mm 2 mps 688 mmHg 89%
19:00 +20°C° 0 mm 2 mps 688 mmHg 93%
20:00 +20°C° 0 mm 1 mps 688 mmHg 96%
21:00 +20°C° 0 mm 1 mps 688 mmHg 96%
22:00 +19°C° 0 mm 1 mps 688 mmHg 96%
23:00 +19°C° 0 mm 1 mps 688 mmHg 96%

24 April, Saturday

Time Temperature Precipitation Wind Pressure Humidity
00:00 +19°C° 0 mm 1 mps 688 mmHg 97%
01:00 +19°C° 0 mm 1 mps 687 mmHg 97%
02:00 +19°C° 0 mm 1 mps 687 mmHg 97%
03:00 +19°C° 0.1 mm 1 mps 687 mmHg 97%
04:00 +19°C° 0.1 mm 1 mps 687 mmHg 97%
05:00 +20°C° 0.1 mm 1 mps 688 mmHg 97%
06:00 +20°C° 0 mm 1 mps 688 mmHg 95%
07:00 +21°C° 0 mm 1 mps 689 mmHg 92%
08:00 +21°C° 0 mm 2 mps 689 mmHg 90%
09:00 +23°C° 0.2 mm 2 mps 689 mmHg 85%
10:00 +24°C° 0.2 mm 2 mps 689 mmHg 79%
11:00 +26°C° 0.2 mm 2 mps 689 mmHg 74%
12:00 +26°C° 0.7 mm 2 mps 688 mmHg 75%
13:00 +26°C° 0.7 mm 2 mps 687 mmHg 77%
14:00 +26°C° 0.7 mm 3 mps 687 mmHg 78%
15:00 +25°C° 0.3 mm 2 mps 687 mmHg 83%
16:00 +24°C° 0.3 mm 2 mps 687 mmHg 87%
17:00 +23°C° 0.3 mm 2 mps 687 mmHg 91%
18:00 +22°C° 0.1 mm 1 mps 687 mmHg 93%
19:00 +21°C° 0.1 mm 1 mps 688 mmHg 95%
20:00 +21°C° 0.1 mm 1 mps 688 mmHg 96%
21:00 +20°C° 0.1 mm 1 mps 688 mmHg 97%
22:00 +20°C° 0.1 mm 1 mps 688 mmHg 97%
23:00 +20°C° 0.1 mm 1 mps 688 mmHg 98%

25 April, Sunday

Time Temperature Precipitation Wind Pressure Humidity
00:00 +20°C° 0 mm 1 mps 688 mmHg 98%
01:00 +19°C° 0 mm 1 mps 688 mmHg 98%
02:00 +19°C° 0 mm 1 mps 687 mmHg 98%
03:00 +20°C° 0 mm 1 mps 688 mmHg 98%
04:00 +20°C° 0 mm 1 mps 688 mmHg 98%
05:00 +20°C° 0 mm 1 mps 688 mmHg 98%
06:00 +20°C° 0 mm 1 mps 689 mmHg 97%
07:00 +20°C° 0 mm 2 mps 689 mmHg 96%
08:00 +20°C° 0 mm 2 mps 690 mmHg 95%
09:00 +21°C° 0 mm 2 mps 689 mmHg 91%
10:00 +23°C° 0 mm 2 mps 689 mmHg 88%
11:00 +23°C° 0 mm 2 mps 689 mmHg 85%
12:00 +24°C° 0.4 mm 2 mps 688 mmHg 83%
13:00 +25°C° 0.4 mm 2 mps 688 mmHg 81%
14:00 +26°C° 0.4 mm 2 mps 687 mmHg 78%
15:00 +25°C° 0.7 mm 2 mps 687 mmHg 84%
16:00 +24°C° 0.7 mm 2 mps 687 mmHg 89%
17:00 +23°C° 0.7 mm 1 mps 687 mmHg 94%
18:00 +22°C° 0.1 mm 1 mps 688 mmHg 95%
19:00 +21°C° 0.1 mm 1 mps 688 mmHg 96%
20:00 +21°C° 0.1 mm 1 mps 688 mmHg 97%
21:00 +20°C° 0.1 mm 1 mps 688 mmHg 97%
22:00 +20°C° 0.1 mm 1 mps 688 mmHg 97%
23:00 +18°C° 0.1 mm 0 mps 688 mmHg 97%

26 April, Monday

Time Temperature Precipitation Wind Pressure Humidity
00:00 +18°C° 0.2 mm 0 mps 688 mmHg 98%
01:00 +20°C° 0.2 mm 1 mps 688 mmHg 98%
02:00 +20°C° 0.2 mm 1 mps 687 mmHg 98%
03:00 +20°C° 0.1 mm 1 mps 688 mmHg 98%
04:00 +20°C° 0.1 mm 1 mps 688 mmHg 98%
05:00 +20°C° 0.1 mm 1 mps 688 mmHg 98%
06:00 +21°C° 0.1 mm 1 mps 689 mmHg 97%
07:00 +21°C° 0.1 mm 1 mps 689 mmHg 95%
08:00 +21°C° 0.1 mm 2 mps 690 mmHg 94%
09:00 +23°C° 0.5 mm 2 mps 689 mmHg 91%
10:00 +24°C° 0.5 mm 1 mps 689 mmHg 87%
11:00 +25°C° 0.5 mm 1 mps 689 mmHg 84%
12:00 +25°C° 0.8 mm 1 mps 688 mmHg 83%
13:00 +25°C° 0.8 mm 1 mps 688 mmHg 83%
14:00 +25°C° 0.8 mm 1 mps 687 mmHg 82%
15:00 +25°C° 1 mm 1 mps 687 mmHg 86%
16:00 +24°C° 1 mm 1 mps 687 mmHg 90%
17:00 +23°C° 1 mm 1 mps 687 mmHg 94%
18:00 +22°C° 0.6 mm 1 mps 687 mmHg 95%
19:00 +22°C° 0.6 mm 1 mps 688 mmHg 96%
20:00 +21°C° 0.6 mm 1 mps 688 mmHg 97%
21:00 +21°C° 0.5 mm 1 mps 688 mmHg 97%
22:00 +21°C° 0.5 mm 1 mps 688 mmHg 97%
23:00 +21°C° 0.5 mm 1 mps 688 mmHg 97%
Show more